| time (UTC) | temp C | wind direction | speed KPH | gust KPH | rain 1hr cm | rain 24hr cm | rain mn cm | humidity % | barometer mb |
| 20260507093747 | 7 | 324 | 1.6 | 0.0 | 0.00 | 0.00 | 0.00 | 81 | 1019.0 |
| 20260507093248 | 7 | 324 | 1.6 | 0.0 | 0.00 | 0.00 | 0.00 | 81 | 1018.9 |
| 20260507092748 | 7 | 324 | 1.6 | 0.0 | 0.00 | 0.00 | 0.00 | 80 | 1018.8 |
| 20260507092248 | 7 | 324 | 1.6 | 0.0 | 0.00 | 0.00 | 0.00 | 80 | 1019.0 |
| 20260507091748 | 7 | 324 | 1.6 | 0.0 | 0.00 | 0.00 | 0.00 | 79 | 1019.1 |
| 20260507091248 | 7 | 324 | 1.6 | 0.0 | 0.00 | 0.00 | 0.00 | 79 | 1018.9 |
| 20260507090748 | 7 | 324 | 1.6 | 0.0 | 0.00 | 0.00 | 0.00 | 79 | 1018.7 |
| 20260507085748 | 7 | 324 | 1.6 | 0.0 | 0.00 | 0.00 | 0.00 | 79 | 1018.6 |
| 20260507084747 | 7 | 324 | 1.6 | 1.6 | 0.00 | 0.00 | 0.00 | 78 | 1018.6 |
| 20260507084247 | 7 | 324 | 1.6 | 1.6 | 0.00 | 0.00 | 0.00 | 78 | 1019.0 |
| 20260507083748 | 7 | 325 | 1.6 | 1.6 | 0.00 | 0.00 | 0.00 | 78 | 1018.6 |
| 20260507083248 | 7 | 326 | 1.6 | 1.6 | 0.00 | 0.00 | 0.00 | 78 | 1018.6 |
| 20260507082748 | 7 | 326 | 1.6 | 4.8 | 0.00 | 0.00 | 0.00 | 78 | 1018.8 |
| 20260507082247 | 7 | 334 | 1.6 | 4.8 | 0.00 | 0.00 | 0.00 | 78 | 1019.0 |
| 20260507081749 | 7 | 334 | 3.2 | 1.6 | 0.00 | 0.00 | 0.00 | 77 | 1019.1 |
| 20260507081248 | 7 | 332 | 1.6 | 4.8 | 0.00 | 0.00 | 0.00 | 77 | 1019.1 |
| 20260507080748 | 7 | 322 | 1.6 | 4.8 | 0.00 | 0.00 | 0.00 | 77 | 1018.9 |
| 20260507080247 | 7 | 78 | 1.6 | 1.6 | 0.00 | 0.00 | 0.00 | 77 | 1018.8 |
| 20260507075749 | 7 | 78 | 1.6 | 1.6 | 0.00 | 0.00 | 0.00 | 77 | 1018.8 |
| 20260507075247 | 7 | 78 | 1.6 | 1.6 | 0.00 | 0.00 | 0.00 | 78 | 1018.8 |
| 20260507074747 | 7 | 79 | 1.6 | 0.0 | 0.00 | 0.00 | 0.00 | 78 | 1018.7 |
| 20260507074248 | 7 | 80 | 1.6 | 0.0 | 0.00 | 0.00 | 0.00 | 79 | 1019.0 |
| 20260507073749 | 7 | 80 | 1.6 | 0.0 | 0.00 | 0.00 | 0.00 | 79 | 1019.1 |
| 20260507073248 | 7 | 80 | 1.6 | 0.0 | 0.00 | 0.00 | 0.00 | 78 | 1019.1 |
| 20260507072748 | 7 | 80 | 1.6 | 0.0 | 0.00 | 0.00 | 0.00 | 78 | 1019.0 |
| 20260507072248 | 7 | 80 | 1.6 | 0.0 | 0.00 | 0.00 | 0.00 | 77 | 1018.7 |
| 20260507071747 | 7 | 80 | 1.6 | 0.0 | 0.00 | 0.00 | 0.00 | 77 | 1018.9 |
| 20260507071248 | 7 | 80 | 1.6 | 0.0 | 0.00 | 0.00 | 0.00 | 76 | 1019.0 |
| 20260507070747 | 7 | 80 | 1.6 | 0.0 | 0.00 | 0.00 | 0.00 | 76 | 1018.8 |
| 20260507065747 | 8 | 80 | 1.6 | 0.0 | 0.00 | 0.00 | 0.00 | 74 | 1018.7 |
| 20260507064748 | 8 | 80 | 1.6 | 0.0 | 0.00 | 0.00 | 0.00 | 71 | 1018.6 |
| 20260507064248 | 8 | 80 | 1.6 | 0.0 | 0.00 | 0.00 | 0.00 | 70 | 1018.7 |
| 20260507063748 | 8 | 80 | 1.6 | 0.0 | 0.00 | 0.00 | 0.00 | 70 | 1018.8 |
| 20260507063247 | 9 | 80 | 1.6 | 4.8 | 0.00 | 0.00 | 0.00 | 70 | 1018.8 |
| 20260507062749 | 9 | 80 | 1.6 | 4.8 | 0.00 | 0.00 | 0.00 | 69 | 1018.6 |
| 20260507062248 | 9 | 26 | 3.2 | 4.8 | 0.00 | 0.00 | 0.00 | 69 | 1018.9 |
| 20260507061749 | 9 | 1 | 1.6 | 4.8 | 0.00 | 0.00 | 0.00 | 69 | 1019.5 |
| 20260507061249 | 9 | 1 | 1.6 | 1.6 | 0.00 | 0.00 | 0.00 | 68 | 1019.6 |
| 20260507060748 | 10 | 1 | 1.6 | 4.8 | 0.00 | 0.00 | 0.00 | 68 | 1019.4 |
| 20260507055748 | 10 | 359 | 3.2 | 4.8 | 0.00 | 0.00 | 0.00 | 67 | 1019.7 |
| 20260507055248 | 10 | 359 | 1.6 | 4.8 | 0.00 | 0.00 | 0.00 | 67 | 1019.7 |
| 20260507054748 | 10 | 358 | 1.6 | 4.8 | 0.00 | 0.00 | 0.00 | 66 | 1019.6 |
| 20260507054247 | 10 | 355 | 1.6 | 4.8 | 0.00 | 0.00 | 0.00 | 66 | 1019.7 |
| 20260507053749 | 10 | 6 | 1.6 | 4.8 | 0.00 | 0.00 | 0.00 | 66 | 1019.6 |
| 20260507053247 | 10 | 20 | 1.6 | 4.8 | 0.00 | 0.00 | 0.00 | 65 | 1019.8 |
| 20260507052747 | 10 | 20 | 1.6 | 6.4 | 0.00 | 0.00 | 0.00 | 64 | 1019.7 |
| 20260507052249 | 10 | 24 | 3.2 | 6.4 | 0.00 | 0.00 | 0.00 | 64 | 1019.5 |
| 20260507051747 | 10 | 37 | 3.2 | 4.8 | 0.00 | 0.00 | 0.00 | 64 | 1019.5 |
| 20260507051247 | 11 | 38 | 1.6 | 4.8 | 0.00 | 0.00 | 0.00 | 63 | 1019.5 |
| 20260507050747 | 11 | 39 | 1.6 | 1.6 | 0.00 | 0.00 | 0.00 | 63 | 1019.5 |
| 20260507045747 | 11 | 39 | 1.6 | 1.6 | 0.00 | 0.00 | 0.00 | 62 | 1019.5 |
| 20260507045249 | 11 | 39 | 1.6 | 4.8 | 0.00 | 0.00 | 0.00 | 62 | 1019.5 |
| 20260507044748 | 11 | 41 | 1.6 | 4.8 | 0.00 | 0.00 | 0.00 | 62 | 1019.3 |
| 20260507043748 | 11 | 45 | 1.6 | 4.8 | 0.00 | 0.00 | 0.00 | 62 | 1018.9 |
| 20260507043249 | 11 | 49 | 1.6 | 8.0 | 0.00 | 0.00 | 0.00 | 62 | 1018.8 |
| 20260507042747 | 11 | 82 | 1.6 | 8.0 | 0.00 | 0.00 | 0.00 | 62 | 1018.5 |
| 20260507042248 | 11 | 74 | 8.0 | 8.0 | 0.00 | 0.00 | 0.00 | 61 | 1018.5 |
| 20260507041749 | 11 | 80 | 1.6 | 8.0 | 0.00 | 0.00 | 0.00 | 61 | 1018.6 |
| 20260507041249 | 11 | 82 | 1.6 | 11.3 | 0.00 | 0.00 | 0.00 | 61 | 1018.6 |
| 20260507040748 | 11 | 84 | 3.2 | 11.3 | 0.00 | 0.00 | 0.00 | 61 | 1018.3 |
| 20260507040247 | 11 | 104 | 1.6 | 8.0 | 0.00 | 0.00 | 0.00 | 60 | 1018.3 |
| 20260507035247 | 11 | 76 | 3.2 | 11.3 | 0.00 | 0.00 | 0.00 | 59 | 1018.6 |
| 20260507034748 | 12 | 78 | 1.6 | 8.0 | 0.00 | 0.00 | 0.00 | 60 | 1018.6 |
| 20260507034247 | 12 | 88 | 4.8 | 8.0 | 0.00 | 0.00 | 0.00 | 60 | 1018.6 |
| 20260507033748 | 12 | 82 | 4.8 | 8.0 | 0.00 | 0.00 | 0.00 | 60 | 1018.5 |
| 20260507033247 | 12 | 62 | 4.8 | 8.0 | 0.00 | 0.00 | 0.00 | 60 | 1018.5 |
| 20260507032747 | 12 | 64 | 3.2 | 6.4 | 0.00 | 0.00 | 0.00 | 60 | 1018.5 |
| 20260507032247 | 12 | 65 | 1.6 | 6.4 | 0.00 | 0.00 | 0.00 | 59 | 1018.4 |
| 20260507031749 | 12 | 86 | 1.6 | 8.0 | 0.00 | 0.00 | 0.00 | 60 | 1018.3 |
| 20260507031247 | 11 | 82 | 1.6 | 8.0 | 0.00 | 0.00 | 0.00 | 60 | 1018.1 |
| 20260507030748 | 11 | 66 | 3.2 | 8.0 | 0.00 | 0.00 | 0.00 | 61 | 1018.2 |
| 20260507025747 | 12 | 10 | 1.6 | 6.4 | 0.00 | 0.00 | 0.00 | 61 | 1018.1 |
| 20260507025248 | 12 | 6 | 1.6 | 4.8 | 0.00 | 0.00 | 0.00 | 61 | 1018.0 |
| 20260507024748 | 12 | 10 | 1.6 | 1.6 | 0.00 | 0.00 | 0.00 | 60 | 1017.8 |
| 20260507024249 | 12 | 5 | 1.6 | 6.4 | 0.00 | 0.00 | 0.00 | 59 | 1017.7 |
| 20260507023748 | 12 | 5 | 1.6 | 6.4 | 0.00 | 0.00 | 0.00 | 59 | 1017.8 |
| 20260507023248 | 12 | 6 | 3.2 | 6.4 | 0.00 | 0.00 | 0.00 | 57 | 1017.7 |
| 20260507022249 | 13 | 27 | 4.8 | 6.4 | 0.00 | 0.00 | 0.00 | 56 | 1017.5 |
| 20260507021748 | 13 | 26 | 1.6 | 6.4 | 0.00 | 0.00 | 0.00 | 55 | 1017.5 |
| 20260507021248 | 13 | 82 | 1.6 | 6.4 | 0.00 | 0.00 | 0.00 | 55 | 1017.5 |
| 20260507020748 | 13 | 147 | 3.2 | 6.4 | 0.00 | 0.00 | 0.00 | 54 | 1017.4 |
| 20260507020248 | 14 | 85 | 1.6 | 8.0 | 0.00 | 0.00 | 0.00 | 53 | 1017.3 |
| 20260507015748 | 14 | 68 | 1.6 | 11.3 | 0.00 | 0.00 | 0.00 | 53 | 1017.2 |
| 20260507015247 | 14 | 72 | 3.2 | 11.3 | 0.00 | 0.00 | 0.00 | 52 | 1017.1 |
| 20260507014749 | 14 | 86 | 4.8 | 11.3 | 0.00 | 0.00 | 0.00 | 52 | 1017.1 |
| 20260507014247 | 15 | 45 | 1.6 | 11.3 | 0.00 | 0.00 | 0.00 | 52 | 1017.1 |
| 20260507013747 | 15 | 20 | 1.6 | 11.3 | 0.00 | 0.00 | 0.00 | 52 | 1017.1 |
| 20260507013248 | 15 | 38 | 1.6 | 8.0 | 0.00 | 0.00 | 0.00 | 51 | 1017.0 |
| 20260507012747 | 15 | 62 | 4.8 | 8.0 | 0.00 | 0.00 | 0.00 | 51 | 1017.0 |
| 20260507012249 | 15 | 61 | 3.2 | 12.9 | 0.00 | 0.00 | 0.00 | 51 | 1017.0 |
| 20260507011749 | 15 | 56 | 8.0 | 12.9 | 0.00 | 0.00 | 0.00 | 51 | 1017.0 |
| 20260507011247 | 15 | 10 | 3.2 | 11.3 | 0.00 | 0.00 | 0.00 | 51 | 1017.0 |
| 20260507010748 | 15 | 70 | 3.2 | 11.3 | 0.00 | 0.00 | 0.00 | 51 | 1017.0 |
| 20260507010247 | 15 | 42 | 1.6 | 11.3 | 0.00 | 0.00 | 0.00 | 51 | 1017.0 |
| 20260507005748 | 15 | 10 | 4.8 | 14.5 | 0.00 | 0.00 | 0.00 | 51 | 1016.9 |
| 20260507004747 | 16 | 41 | 4.8 | 12.9 | 0.00 | 0.00 | 0.00 | 50 | 1016.8 |
| 20260507004248 | 16 | 53 | 4.8 | 14.5 | 0.00 | 0.00 | 0.00 | 51 | 1016.8 |
| 20260507003748 | 16 | 46 | 4.8 | 14.5 | 0.00 | 0.00 | 0.00 | 51 | 1016.8 |
| 20260507003249 | 16 | 51 | 8.0 | 19.3 | 0.00 | 0.00 | 0.00 | 50 | 1016.7 |
| 20260507001748 | 16 | 43 | 1.6 | 12.9 | 0.00 | 0.00 | 0.00 | 50 | 1016.6 |
| 20260507001248 | 16 | 15 | 3.2 | 16.1 | 0.00 | 0.00 | 0.00 | 50 | 1016.5 |
| 20260507000748 | 16 | 4 | 8.0 | 16.1 | 0.00 | 0.00 | 0.00 | 50 | 1016.6 |
| 20260506235747 | 16 | 324 | 3.2 | 19.3 | 0.00 | 0.00 | 0.00 | 50 | 1016.5 |
| 20260506235247 | 16 | 15 | 11.3 | 20.9 | 0.00 | 0.00 | 0.00 | 50 | 1016.5 |
| 20260506234747 | 16 | 31 | 8.0 | 20.9 | 0.00 | 0.00 | 0.00 | 49 | 1016.5 |
| 20260506234248 | 17 | 93 | 11.3 | 19.3 | 0.00 | 0.00 | 0.00 | 48 | 1016.4 |
| 20260506233747 | 17 | 61 | 8.0 | 19.3 | 0.00 | 0.00 | 0.00 | 49 | 1016.3 |
| 20260506233248 | 16 | 74 | 3.2 | 19.3 | 0.00 | 0.00 | 0.00 | 49 | 1016.3 |
| 20260506232747 | 17 | 29 | 9.7 | 20.9 | 0.00 | 0.00 | 0.00 | 49 | 1016.2 |
| 20260506232248 | 17 | 113 | 12.9 | 22.5 | 0.00 | 0.00 | 0.00 | 48 | 1016.2 |
| 20260506231749 | 17 | 109 | 4.8 | 22.5 | 0.00 | 0.00 | 0.00 | 48 | 1016.1 |
| 20260506231247 | 17 | 109 | 8.0 | 20.9 | 0.00 | 0.00 | 0.00 | 48 | 1016.1 |
| 20260506230749 | 17 | 116 | 12.9 | 22.5 | 0.00 | 0.00 | 0.00 | 47 | 1016.1 |
| 20260506230247 | 17 | 99 | 8.0 | 25.7 | 0.00 | 0.00 | 0.00 | 48 | 1016.0 |
| 20260506225748 | 17 | 84 | 17.7 | 25.7 | 0.00 | 0.00 | 0.00 | 48 | 1016.0 |
| 20260506225247 | 17 | 20 | 3.2 | 20.9 | 0.00 | 0.00 | 0.00 | 49 | 1016.0 |
| 20260506224747 | 17 | 105 | 9.7 | 20.9 | 0.00 | 0.00 | 0.00 | 48 | 1015.9 |
| 20260506223748 | 17 | 10 | 4.8 | 22.5 | 0.00 | 0.00 | 0.00 | 48 | 1015.8 |
| 20260506223248 | 17 | 80 | 17.7 | 20.9 | 0.00 | 0.00 | 0.00 | 48 | 1015.6 |
| 20260506222748 | 17 | 74 | 3.2 | 25.7 | 0.00 | 0.00 | 0.00 | 47 | 1015.6 |
| 20260506222248 | 17 | 43 | 4.8 | 25.7 | 0.00 | 0.00 | 0.00 | 49 | 1015.5 |
| 20260506221748 | 17 | 20 | 11.3 | 20.9 | 0.00 | 0.00 | 0.00 | 49 | 1015.4 |
| 20260506221248 | 17 | 111 | 8.0 | 20.9 | 0.00 | 0.00 | 0.00 | 49 | 1015.4 |
| 20260506220747 | 17 | 81 | 19.3 | 22.5 | 0.00 | 0.00 | 0.00 | 49 | 1015.4 |
| 20260506220247 | 17 | 105 | 1.6 | 22.5 | 0.00 | 0.00 | 0.00 | 48 | 1015.4 |
| 20260506215247 | 17 | 36 | 3.2 | 19.3 | 0.00 | 0.00 | 0.00 | 47 | 1015.6 |
| 20260506214248 | 16 | 33 | 3.2 | 20.9 | 0.00 | 0.00 | 0.00 | 49 | 1015.7 |
| 20260506213749 | 17 | 28 | 4.8 | 29.0 | 0.00 | 0.00 | 0.00 | 49 | 1015.7 |
| 20260506213247 | 17 | 15 | 3.2 | 29.0 | 0.00 | 0.00 | 0.00 | 50 | 1015.8 |
| 20260506212249 | 17 | 108 | 8.0 | 22.5 | 0.00 | 0.00 | 0.00 | 50 | 1015.9 |
| 20260506211747 | 17 | 39 | 9.7 | 20.9 | 0.00 | 0.00 | 0.00 | 50 | 1015.9 |
| 20260506210747 | 16 | 20 | 3.2 | 20.9 | 0.00 | 0.00 | 0.00 | 50 | 1016.0 |
| 20260506210248 | 16 | 88 | 9.7 | 25.7 | 0.00 | 0.00 | 0.00 | 50 | 1016.0 |
| 20260506205748 | 17 | 73 | 9.7 | 25.7 | 0.00 | 0.00 | 0.00 | 48 | 1016.0 |
| 20260506205247 | 16 | 327 | 3.2 | 22.5 | 0.00 | 0.00 | 0.00 | 50 | 1016.0 |
| 20260506204748 | 16 | 61 | 11.3 | 22.5 | 0.00 | 0.00 | 0.00 | 50 | 1016.0 |
| 20260506203748 | 16 | 141 | 1.6 | 20.9 | 0.00 | 0.00 | 0.00 | 53 | 1016.2 |
| 20260506202247 | 16 | 119 | 4.8 | 25.7 | 0.00 | 0.00 | 0.00 | 54 | 1016.4 |
| 20260506201747 | 16 | 70 | 14.5 | 25.7 | 0.00 | 0.00 | 0.00 | 53 | 1016.5 |
| 20260506201248 | 16 | 100 | 8.0 | 20.9 | 0.00 | 0.00 | 0.00 | 55 | 1016.5 |
| 20260506200748 | 16 | 47 | 3.2 | 20.9 | 0.00 | 0.00 | 0.00 | 54 | 1016.5 |
| 20260506200248 | 16 | 26 | 1.6 | 11.3 | 0.00 | 0.00 | 0.00 | 57 | 1016.5 |
| 20260506195247 | 15 | 127 | 3.2 | 20.9 | 0.00 | 0.00 | 0.00 | 55 | 1016.6 |
| 20260506194747 | 15 | 87 | 11.3 | 20.9 | 0.00 | 0.00 | 0.00 | 56 | 1016.7 |
| 20260506194247 | 15 | 349 | 3.2 | 20.9 | 0.00 | 0.00 | 0.00 | 57 | 1016.7 |
| 20260506193747 | 15 | 84 | 1.6 | 19.3 | 0.00 | 0.00 | 0.00 | 56 | 1016.8 |
| 20260506193247 | 15 | 103 | 4.8 | 19.3 | 0.00 | 0.00 | 0.00 | 57 | 1016.8 |
| 20260506192247 | 15 | 78 | 1.6 | 19.3 | 0.00 | 0.00 | 0.00 | 57 | 1016.8 |
| 20260506191748 | 15 | 104 | 1.6 | 19.3 | 0.00 | 0.00 | 0.00 | 57 | 1016.8 |
| 20260506191247 | 15 | 55 | 3.2 | 19.3 | 0.00 | 0.00 | 0.00 | 58 | 1016.9 |
| 20260506190747 | 15 | 28 | 19.3 | 19.3 | 0.00 | 0.00 | 0.00 | 56 | 1017.0 |
| 20260506190247 | 15 | 80 | 9.7 | 19.3 | 0.00 | 0.00 | 0.00 | 57 | 1017.0 |
| 20260506185748 | 15 | 45 | 3.2 | 19.3 | 0.00 | 0.00 | 0.00 | 56 | 1017.0 |
| 20260506185247 | 15 | 99 | 3.2 | 29.0 | 0.00 | 0.00 | 0.00 | 58 | 1017.0 |
| 20260506184749 | 15 | 60 | 3.2 | 29.0 | 0.00 | 0.00 | 0.00 | 57 | 1017.1 |
| 20260506184247 | 15 | 94 | 8.0 | 29.0 | 0.00 | 0.00 | 0.00 | 57 | 1017.3 |
| 20260506183747 | 15 | 93 | 8.0 | 20.9 | 0.00 | 0.00 | 0.00 | 58 | 1017.3 |
| 20260506183247 | 15 | 95 | 3.2 | 20.9 | 0.00 | 0.00 | 0.00 | 57 | 1017.4 |
| 20260506182248 | 15 | 89 | 9.7 | 19.3 | 0.00 | 0.00 | 0.00 | 58 | 1017.5 |
| 20260506181749 | 15 | 107 | 3.2 | 19.3 | 0.00 | 0.00 | 0.00 | 57 | 1017.5 |
| 20260506181249 | 15 | 111 | 3.2 | 19.3 | 0.00 | 0.00 | 0.00 | 57 | 1017.5 |
| 20260506180748 | 14 | 99 | 8.0 | 14.5 | 0.00 | 0.00 | 0.00 | 57 | 1017.4 |
| 20260506180247 | 15 | 75 | 12.9 | 22.5 | 0.00 | 0.00 | 0.00 | 57 | 1017.5 |
| 20260506175248 | 15 | 153 | 4.8 | 20.9 | 0.00 | 0.00 | 0.00 | 58 | 1017.6 |
| 20260506174749 | 15 | 89 | 3.2 | 20.9 | 0.00 | 0.00 | 0.00 | 58 | 1017.6 |
| 20260506174248 | 15 | 107 | 12.9 | 20.9 | 0.00 | 0.00 | 0.00 | 57 | 1017.7 |
| 20260506173748 | 14 | 122 | 3.2 | 20.9 | 0.00 | 0.00 | 0.00 | 59 | 1017.8 |
| 20260506173248 | 14 | 99 | 1.6 | 20.9 | 0.00 | 0.00 | 0.00 | 58 | 1017.7 |
| 20260506172748 | 14 | 81 | 3.2 | 25.7 | 0.00 | 0.00 | 0.00 | 58 | 1017.8 |
| 20260506172247 | 14 | 85 | 9.7 | 25.7 | 0.00 | 0.00 | 0.00 | 59 | 1017.6 |
| 20260506171747 | 14 | 39 | 8.0 | 20.9 | 0.00 | 0.00 | 0.00 | 58 | 1017.7 |
| 20260506171249 | 14 | 111 | 8.0 | 20.9 | 0.00 | 0.00 | 0.00 | 57 | 1017.7 |
| 20260506170247 | 13 | 80 | 4.8 | 29.0 | 0.00 | 0.00 | 0.00 | 59 | 1017.8 |
| 20260506165747 | 13 | 26 | 3.2 | 27.4 | 0.00 | 0.00 | 0.00 | 60 | 1017.7 |
| 20260506164747 | 13 | 83 | 4.8 | 29.0 | 0.00 | 0.00 | 0.00 | 60 | 1017.8 |
| 20260506164247 | 13 | 80 | 9.7 | 29.0 | 0.00 | 0.00 | 0.00 | 60 | 1017.9 |
| 20260506163748 | 13 | 40 | 3.2 | 22.5 | 0.00 | 0.00 | 0.00 | 60 | 1018.1 |
| 20260506163248 | 13 | 98 | 9.7 | 37.0 | 0.00 | 0.00 | 0.00 | 59 | 1017.9 |
| 20260506162748 | 13 | 61 | 1.6 | 37.0 | 0.00 | 0.00 | 0.00 | 59 | 1018.0 |
| 20260506162247 | 13 | 113 | 3.2 | 29.0 | 0.00 | 0.00 | 0.00 | 61 | 1018.0 |
| 20260506161747 | 13 | 88 | 4.8 | 29.0 | 0.00 | 0.00 | 0.00 | 60 | 1017.9 |
| 20260506161248 | 13 | 74 | 12.9 | 35.4 | 0.00 | 0.00 | 0.00 | 60 | 1017.7 |
| 20260506160748 | 13 | 140 | 20.9 | 35.4 | 0.00 | 0.00 | 0.00 | 60 | 1017.7 |
| 20260506160247 | 12 | 95 | 3.2 | 27.4 | 0.00 | 0.00 | 0.00 | 63 | 1017.6 |
| 20260506155748 | 12 | 122 | 8.0 | 32.2 | 0.00 | 0.00 | 0.00 | 61 | 1017.7 |
| 20260506155247 | 12 | 27 | 14.5 | 32.2 | 0.00 | 0.00 | 0.00 | 62 | 1017.7 |
| 20260506154747 | 12 | 70 | 3.2 | 32.2 | 0.00 | 0.00 | 0.00 | 61 | 1017.6 |
| 20260506153747 | 12 | 32 | 8.0 | 32.2 | 0.00 | 0.00 | 0.00 | 63 | 1017.3 |
| 20260506153247 | 12 | 41 | 20.9 | 25.7 | 0.00 | 0.00 | 0.00 | 64 | 1017.5 |
| 20260506152748 | 12 | 84 | 3.2 | 35.4 | 0.00 | 0.00 | 0.00 | 65 | 1017.4 |
| 20260506152249 | 12 | 113 | 17.7 | 35.4 | 0.00 | 0.00 | 0.00 | 63 | 1017.6 |
| 20260506151747 | 12 | 91 | 3.2 | 20.9 | 0.00 | 0.00 | 0.00 | 66 | 1017.4 |
| 20260506151247 | 11 | 143 | 3.2 | 33.8 | 0.00 | 0.00 | 0.00 | 66 | 1017.4 |
| 20260506150247 | 11 | 109 | 22.5 | 27.4 | 0.00 | 0.00 | 0.00 | 66 | 1017.2 |
| 20260506145747 | 11 | 70 | 3.2 | 27.4 | 0.00 | 0.00 | 0.00 | 68 | 1017.1 |
| 20260506144749 | 10 | 95 | 3.2 | 32.2 | 0.00 | 0.00 | 0.00 | 69 | 1016.8 |
| 20260506143247 | 10 | 118 | 3.2 | 32.2 | 0.00 | 0.00 | 0.00 | 72 | 1016.5 |
| 20260506142747 | 10 | 90 | 8.0 | 27.4 | 0.00 | 0.00 | 0.00 | 74 | 1016.6 |
| 20260506141749 | 9 | 76 | 4.8 | 22.5 | 0.00 | 0.00 | 0.00 | 76 | 1016.5 |
| 20260506141247 | 9 | 105 | 19.3 | 22.5 | 0.00 | 0.00 | 0.00 | 77 | 1016.6 |
| 20260506140747 | 9 | 95 | 4.8 | 22.5 | 0.00 | 0.00 | 0.00 | 76 | 1016.6 |
| 20260506140248 | 9 | 103 | 8.0 | 19.3 | 0.00 | 0.00 | 0.00 | 76 | 1016.5 |
| 20260506135747 | 9 | 351 | 3.2 | 16.1 | 0.00 | 0.00 | 0.00 | 78 | 1016.6 |
| 20260506135248 | 9 | 58 | 3.2 | 16.1 | 0.00 | 0.00 | 0.00 | 78 | 1016.6 |
| 20260506134747 | 9 | 55 | 3.2 | 16.1 | 0.00 | 0.00 | 0.00 | 78 | 1016.5 |
| 20260506133748 | 8 | 76 | 4.8 | 14.5 | 0.00 | 0.00 | 0.00 | 79 | 1016.7 |
| 20260506133247 | 8 | 73 | 3.2 | 14.5 | 0.00 | 0.00 | 0.00 | 79 | 1016.8 |
| 20260506132748 | 8 | 90 | 3.2 | 14.5 | 0.00 | 0.00 | 0.00 | 80 | 1016.6 |
| 20260506132247 | 8 | 91 | 3.2 | 22.5 | 0.00 | 0.00 | 0.00 | 80 | 1016.5 |
| 20260506131747 | 8 | 109 | 9.7 | 22.5 | 0.00 | 0.00 | 0.00 | 80 | 1016.5 |
| 20260506130748 | 8 | 88 | 3.2 | 19.3 | 0.00 | 0.00 | 0.00 | 81 | 1016.3 |
| 20260506130247 | 8 | 72 | 3.2 | 22.5 | 0.00 | 0.00 | 0.00 | 80 | 1016.4 |
| 20260506125247 | 8 | 3 | 3.2 | 27.4 | 0.00 | 0.00 | 0.00 | 80 | 1016.3 |
| 20260506124748 | 8 | 20 | 8.0 | 27.4 | 0.00 | 0.00 | 0.00 | 80 | 1016.2 |
| 20260506124247 | 8 | 38 | 4.8 | 22.5 | 0.00 | 0.00 | 0.00 | 80 | 1016.1 |
| 20260506123748 | 8 | 55 | 19.3 | 19.3 | 0.00 | 0.00 | 0.00 | 80 | 1015.9 |
| 20260506123247 | 8 | 24 | 3.2 | 22.5 | 0.00 | 0.00 | 0.00 | 80 | 1015.8 |
| 20260506122747 | 8 | 53 | 1.6 | 22.5 | 0.00 | 0.00 | 0.00 | 80 | 1015.8 |
| 20260506122247 | 8 | 38 | 1.6 | 16.1 | 0.00 | 0.00 | 0.00 | 81 | 1015.9 |
| 20260506121747 | 8 | 20 | 3.2 | 16.1 | 0.00 | 0.00 | 0.00 | 81 | 1015.7 |
| 20260506121248 | 8 | 32 | 4.8 | 19.3 | 0.00 | 0.00 | 0.00 | 81 | 1015.5 |
| 20260506120748 | 8 | 72 | 11.3 | 19.3 | 0.00 | 0.00 | 0.00 | 81 | 1015.4 |
| 20260506120247 | 8 | 66 | 8.0 | 14.5 | 0.00 | 0.00 | 0.00 | 81 | 1015.4 |
| 20260506115747 | 8 | 31 | 3.2 | 25.7 | 0.00 | 0.00 | 0.00 | 81 | 1015.4 |
| 20260506115247 | 8 | 55 | 3.2 | 25.7 | 0.00 | 0.00 | 0.00 | 81 | 1015.3 |
| 20260506114748 | 8 | 66 | 3.2 | 16.1 | 0.00 | 0.00 | 0.00 | 81 | 1015.4 |
| 20260506114247 | 8 | 96 | 3.2 | 16.1 | 0.00 | 0.00 | 0.00 | 81 | 1015.2 |
| 20260506112247 | 8 | 78 | 3.2 | 14.5 | 0.00 | 0.00 | 0.00 | 80 | 1015.0 |
| 20260506111247 | 8 | 72 | 3.2 | 11.3 | 0.00 | 0.00 | 0.00 | 80 | 1014.9 |
| 20260506110748 | 8 | 348 | 3.2 | 16.1 | 0.00 | 0.00 | 0.00 | 80 | 1014.7 |
| 20260506110248 | 8 | 38 | 8.0 | 16.1 | 0.00 | 0.00 | 0.00 | 79 | 1014.6 |
| 20260506105747 | 8 | 63 | 8.0 | 16.1 | 0.00 | 0.00 | 0.00 | 79 | 1014.8 |
| 20260506105247 | 8 | 24 | 4.8 | 12.9 | 0.00 | 0.00 | 0.00 | 79 | 1015.2 |
| 20260506104747 | 8 | 62 | 4.8 | 11.3 | 0.00 | 0.00 | 0.00 | 79 | 1015.6 |
| 20260506104249 | 8 | 10 | 3.2 | 11.3 | 0.00 | 0.00 | 0.00 | 79 | 1015.6 |
| 20260506103747 | 8 | 31 | 3.2 | 12.9 | 0.00 | 0.00 | 0.00 | 79 | 1015.8 |
| 20260506103247 | 8 | 59 | 1.6 | 12.9 | 0.00 | 0.00 | 0.00 | 78 | 1015.6 |
| 20260506102749 | 8 | 44 | 3.2 | 20.9 | 0.00 | 0.00 | 0.00 | 78 | 1015.3 |
| 20260506102247 | 8 | 20 | 3.2 | 20.9 | 0.00 | 0.00 | 0.00 | 78 | 1015.2 |
| 20260506101747 | 8 | 55 | 11.3 | 11.3 | 0.00 | 0.00 | 0.00 | 78 | 1015.3 |
| 20260506101247 | 8 | 66 | 3.2 | 11.3 | 0.00 | 0.00 | 0.00 | 79 | 1015.2 |
| 20260506100747 | 8 | 50 | 3.2 | 11.3 | 0.00 | 0.00 | 0.00 | 78 | 1015.1 |
| 20260506095748 | 8 | 15 | 1.6 | 14.5 | 0.00 | 0.00 | 0.00 | 78 | 1014.9 |
| 20260506095247 | 8 | 10 | 3.2 | 14.5 | 0.00 | 0.00 | 0.00 | 78 | 1014.8 |
| 20260506094747 | 8 | 30 | 3.2 | 8.0 | 0.00 | 0.00 | 0.00 | 78 | 1014.7 |